Regional Weather Roundup
Issued by NWS

Home | Current Version | Previous Version | Text Only | Print | Product List | Glossary Off
Versions: 1 2 3 4 5 6 7 8 9 10 11 12 13 14 15 16 17 18 19 20 21 22 23 24 25 26 27 28 29 30 31 32 33 34 35 36 37 38 39 40 41 42 43 44 45 46 47 48 49 50

000
ASUS43 KDTX 180910
RWRMI
MICHIGAN HOURLY REGIONAL WEATHER ROUNDUP
NATIONAL WEATHER SERVICE DETROIT/PONTIAC MI
400 AM EST THU DEC 18 2014

NOTE: "FAIR" INDICATES FEW OR NO CLOUDS BELOW 12,000 FEET WITH NO
SIGNIFICANT WEATHER AND/OR OBSTRUCTION TO VISIBILITY.

MIZ047>049-052>055-059>063-066>070-074>076-081>083-181000-
SOUTHEAST LOWER MICHIGAN

CITY           SKY/WX    TMP DP  RH WIND       PRES   REMARKS
ADRIAN         CLOUDY    29  21  72 W8        30.22R WCI  21
ALMA           CLOUDY    29  27  92 W9        30.18S WCI  21
ANN ARBOR      CLOUDY    29  21  72 NW9       30.18S WCI  20
BAD AXE        CLOUDY    28  25  89 NW8       30.15S WCI  19
CARO           CLOUDY    30  28  94 W10       30.15S FOG     WCI  21
DETROIT CITY   CLOUDY    31  22  69 W7        30.18S WCI  24
DETROIT        CLOUDY    30  21  69 W10       30.19S WCI  21
FLINT          CLOUDY    31  24  75 W14       30.17S WCI  21
GROSSE ILE     CLOUDY    30  21  69 W8        30.18S WCI  23
HILLSDALE      CLOUDY    28  24  83 W9        30.19S WCI  19
HOWELL         CLOUDY    28  24  84 W10       30.17S WCI  19

CITY           SKY/WX    TMP DP  RH WIND       PRES   REMARKS
JACKSON        CLOUDY    28  21  75 W8        30.19S WCI  20
LAMBERTVILLE   CLOUDY    32  23  69 W6        30.22S WCI  26
LANSING        CLOUDY    29  23  78 W10       30.19S WCI  20
LAPEER         CLOUDY    28  27  93 NW6       30.15F WCI  22
MASON          CLOUDY    28  23  80 W7        30.19S WCI  21
MONROE         CLOUDY    30  23  74 W6        30.19S WCI  24
MT. CLEMENS    CLOUDY    29  27  90 W10       30.14F WCI  20
PONTIAC        CLOUDY    28  22  78 W13       30.14S WCI  17
PORT HOPE        N/A     28  22  78 W7        30.14R WCI  21
PORT HURON     CLOUDY    28  27  93 W9        30.16S WCI  20
TRI CITIES     CLOUDY    31  27  85 W10       30.17S WCI  22
TROY           CLOUDY    32  24  73 W6        30.18F WCI  26
SAGINAW HB     CLOUDY    32  30  93 W9        30.16S WCI  24
$$
MIZ043>046-050>051-056>058-064>065-071>073-077>080-181000-
SOUTHWEST LOWER MICHIGAN

CITY           SKY/WX    TMP DP  RH WIND       PRES   REMARKS
BATTLE CREEK   CLOUDY    30  22  72 W8        30.21S WCI  22
BENTON HARBOR  CLOUDY    28  22  78 W6        30.26S WCI  22
BIG RAPIDS     CLOUDY    30  30  99 NW5       30.17S WCI  25
COLDWATER      CLOUDY    28  22  78 W8        30.21F WCI  20
FREMONT        CLOUDY    30  27  90 NW6       30.20S WCI  24
HOLLAND        CLOUDY    33  23  66 NW6       30.23S WCI  28
GRAND RAPIDS   CLOUDY    30  24  78 W9        30.21F WCI  22
IONIA          CLOUDY    30  25  82 W7        30.18F WCI  23
KALAMAZOO      CLOUDY    29  22  75 W7        30.22F WCI  22
LUDINGTON      CLOUDY    32  29  88 NW6       30.21F WCI  26
MARSHALL       CLOUDY    28  22  79 W7        30.20F WCI  20
MOUNT PLEASANT CLOUDY    30  27  89 W7        30.17S WCI  23
MUSKEGON       CLOUDY    32  25  75 W7        30.22F WCI  26
SOUTH HAVEN    CLOUDY    31  24  74 W8        30.24F WCI  24
$$
MIZ016>042-181000-
NORTHERN LOWER MICHIGAN

CITY           SKY/WX    TMP DP  RH WIND       PRES   REMARKS
ALPENA         CLOUDY    25  20  81 NW8       30.16R WCI  16
BEAVER ISLAND  CLOUDY    24  21  88 N5        30.22R WCI  18
BELLAIRE       CLOUDY    28  24  86 NW3       30.21R
CADILLAC       LGT SNOW  28  26  89 NW6       30.15R WCI  22
CHARLEVOIX     CLOUDY    26  23  89 N10       30.23S WCI  16
FRANKFORT      CLOUDY    30  27  87 N7        30.22S WCI  23
GAYLORD        CLOUDY    21  19  92 VRB7      30.14R WCI  12
GRAYLING       CLOUDY    26  24  93 NW9       30.16R WCI  16
HARBOR SPRINGS CLOUDY    24  19  83 N7        30.19S WCI  16
HOUGHTON LAKE  CLOUDY    26  23  88 NW10      30.15R WCI  16
MANISTEE       CLOUDY    30  27  86 N6        30.21F WCI  24
OSCODA         CLOUDY    26  23  89 NW10      30.15S WCI  15
PELLSTON       CLOUDY    23  19  85 NW7       30.20R WCI  15
ROGERS CITY    CLOUDY    25  22  89 NW5       30.18R WCI  19
TRAVERSE CITY  FLURRIES  30  26  85 NW8       30.20R WCI  22
$$
MIZ007>008-015-181000-
EASTERN UPPER MICHIGAN

CITY           SKY/WX    TMP DP  RH WIND       PRES   REMARKS
KINROSS        PTCLDY    16  16 100 N8        30.19R WCI   5
MACKINAC ISLAN MOCLDY    22  20  94 N12       30.19R WCI  10
NEWBERRY       CLEAR     17  16  95 N7        30.21R WCI   8
S. S. MARIE    PTCLDY    14   8  77 NW5       30.17F WCI   6
$$
MIZ004>006-011>014-085-181000-
CENTRAL UPPER MICHIGAN

CITY           SKY/WX    TMP DP  RH WIND       PRES   REMARKS
MANISTIQUE     CLOUDY    24  21  90 N8        30.23R WCI  15
ESCANABA       CLOUDY    27  19  74 N8        30.24S WCI  18
MENOMINEE      CLOUDY    27  19  74 N8        30.26S WCI  18
SAWYER-GWINN   CLOUDY    25  21  85 N8        30.24R WCI  16
$$
MIZ001>003-009>011-084-181000-
WESTERN UPPER MICHIGAN

CITY           SKY/WX    TMP DP  RH WIND       PRES   REMARKS
IRON MOUNTAIN  CLOUDY    24  18  77 N13       30.25R WCI  12
HOUGHTON       PTCLDY     6   2  83 CALM      30.28R
COPPER HARBOR    N/A     26  17  68 E10G16    30.30S WCI  16
IRONWOOD       CLOUDY    23  18  80 E7        30.27R WCI  15
$$

ABBREVIATIONS USED IN REMARKS
   TC - TEMPERATURE IN CELSIUS
  WCI - WIND CHILL INDEX
   HX - HEAT INDEX
  VSB - VISIBILITY



USA.gov is the U.S. government's official web portal to all federal, state and local government web resources and services.